Wind_Speed
15 14 13 13 13 14 14 14 14 16 18 20 22 24 26 28 30 33 34 32 29 26 25 27 31 36 40 41 41 41 41 42 42 42 44 46 48 48 49 51 52 53 53 53 52 51 51 50 51 52 52 50 49 47 46 46 45 45 45 44 44 43 42 41 41 40 40 39 39 38 38 37 36 36 35 35 35 35 35 35 34 34 33 33 33 33
17 16 15 15 14 14 14 15 15 16 17 19 20 22 24 26 29 31 33 34 32 30 26 24 25 30 36 40 42 42 42 42 43 44 47 49 51 51 51 52 52 52 52 51 51 51 51 52 53 53 53 51 50 48 47 46 47 47 47 46 45 44 43 42 42 41 41 40 40 39 38 38 37 36 36 36 36 36 36 36 35 35 34 34 33 33
18 18 18 16 15 15 15 15 16 16 17 19 20 21 23 25 27 29 32 33 34 33 30 25 22 24 29 34 38 40 41 42 43 46 49 50 50 50 50 52 53 54 53 51 50 50 52 54 56 55 53 51 49 48 47 46 47 47 48 47 46 45 44 43 42 42 42 41 41 40 39 39 38 38 37 37 37 37 37 36 36 35 35 34 34 34
19 19 19 18 17 16 16 16 16 17 18 19 20 21 23 24 25 27 29 32 34 35 33 28 23 22 24 28 32 35 37 39 42 45 49 49 47 45 46 49 52 55 56 56 54 52 54 56 58 58 56 52 49 48 47 46 47 47 47 47 46 45 44 43 43 43 43 43 42 42 41 40 39 39 39 38 38 38 38 37 37 36 36 35 35 35
21 21 21 20 19 19 18 17 17 17 18 19 20 21 22 23 24 25 27 29 31 33 33 31 27 25 25 26 28 30 31 34 37 41 45 46 45 43 43 45 49 52 56 59 60 59 59 60 61 61 60 56 52 49 48 47 47 47 47 46 46 45 44 43 43 43 44 44 44 43 42 41 41 40 39 39 39 39 38 38 37 37 36 36 36 36
23 22 22 22 21 21 20 19 18 18 18 19 20 21 22 23 23 24 25 27 28 29 30 31 30 29 27 26 26 26 27 30 33 37 40 43 44 43 43 44 45 48 52 57 61 63 64 63 63 62 62 59 56 53 50 49 48 47 47 46 45 44 44 43 43 44 44 44 44 44 43 42 41 40 40 39 39 39 39 39 38 37 37 37 37 36
25 24 24 24 23 23 22 21 21 20 20 20 20 21 22 22 22 23 24 25 26 27 27 28 29 30 29 28 26 25 25 27 31 35 38 40 42 42 42 42 43 45 47 51 56 60 63 63 63 62 61 60 58 56 53 51 49 47 46 46 45 45 44 44 44 44 44 44 44 44 43 42 41 40 40 40 40 40 40 39 39 38 37 37 37 37
26 26 26 26 25 25 24 23 23 22 22 21 21 21 21 22 22 22 22 23 24 25 26 26 27 29 30 29 28 25 24 24 27 32 37 40 42 42 41 40 40 41 43 45 48 53 57 60 61 61 60 59 58 57 55 52 49 47 46 46 46 46 45 45 45 45 44 45 45 45 44 43 41 41 40 40 41 41 41 40 39 39 38 38 38 38
27 27 27 27 27 27 26 25 25 24 23 23 22 22 22 22 22 22 22 22 23 24 26 26 27 28 29 29 27 25 22 20 20 23 28 34 39 42 41 39 38 38 39 40 42 45 49 53 56 58 58 57 57 57 55 53 50 48 47 47 47 47 47 47 47 46 46 46 46 46 46 44 43 43 42 42 42 42 42 41 40 40 39 39 39 39
26 27 27 28 29 29 28 27 27 26 25 25 25 24 23 23 22 22 22 23 23 24 25 26 26 27 27 28 27 26 24 21 19 17 18 21 26 32 36 38 38 38 39 39 40 42 44 47 49 52 53 54 55 55 54 53 52 49 48 48 47 47 47 47 48 48 48 49 49 48 47 46 46 45 44 44 43 43 43 42 41 41 40 40 40 39
24 26 27 28 29 29 30 29 29 28 28 27 27 26 26 25 24 23 23 23 24 24 24 25 25 25 25 26 26 26 25 23 21 19 17 16 17 19 23 27 32 35 38 40 41 42 44 45 46 48 49 51 52 53 54 53 53 51 50 49 48 47 47 48 48 49 50 50 50 50 49 48 47 46 46 45 45 44 44 43 42 42 41 41 40 40
24 24 25 26 28 29 30 31 31 30 30 29 29 28 28 28 27 25 24 24 24 24 24 25 25 24 24 24 24 23 23 22 21 21 20 19 18 18 18 19 22 26 32 36 40 43 45 46 47 48 49 50 51 53 53 54 53 53 52 51 50 49 48 49 49 50 50 51 51 50 50 49 48 48 47 47 46 46 45 44 43 43 42 42 41 41
24 24 24 25 26 27 29 30 30 31 31 31 31 30 30 30 29 28 27 26 25 25 25 25 24 24 24 24 24 23 23 23 24 24 24 24 23 22 21 21 20 22 25 29 35 40 43 47 49 50 51 51 52 53 54 55 54 54 53 53 53 52 52 52 51 51 51 51 50 50 50 49 49 48 48 48 47 47 46 45 44 44 43 42 42 42
25 24 24 24 25 26 28 29 30 30 31 31 31 31 31 31 31 30 30 28 27 27 26 25 25 25 25 25 25 26 26 27 27 27 28 27 27 26 25 24 23 23 23 25 29 34 39 44 48 51 52 53 54 55 56 56 56 56 55 55 55 55 55 55 54 53 52 51 50 49 49 49 49 49 49 48 48 48 47 46 45 45 44 43 43 42
26 25 24 24 24 25 26 28 29 30 31 31 31 32 32 32 33 33 32 31 30 30 29 28 27 27 27 27 28 28 28 29 30 30 31 30 30 29 28 28 27 25 25 25 27 30 34 39 44 48 52 54 56 57 57 58 58 57 57 56 56 57 57 57 56 54 52 51 50 49 48 48 48 48 48 48 48 48 47 46 46 45 45 44 43 42
28 27 26 25 24 24 25 26 28 29 31 31 32 32 32 33 33 33 32 32 32 32 31 31 30 30 29 29 29 30 30 31 32 32 33 33 32 31 31 31 30 29 28 27 27 28 31 35 39 43 48 52 55 57 58 59 58 58 57 57 56 57 58 58 57 56 54 52 51 50 49 48 48 48 48 47 47 47 46 46 46 45 44 43 42 42
29 28 27 27 26 25 25 26 27 28 29 31 32 32 33 33 33 33 32 32 33 33 33 33 33 33 32 32 31 31 32 32 32 33 33 34 34 34 33 33 33 32 31 30 29 29 30 32 35 38 42 46 51 55 57 58 58 57 56 56 56 56 57 58 58 57 56 54 53 52 51 51 50 49 48 47 46 46 45 45 44 44 43 42 42 42
29 29 28 28 27 27 26 26 26 27 28 29 31 32 33 33 33 33 33 34 34 33 34 34 34 34 34 34 34 34 33 33 33 33 33 34 34 35 35 35 35 35 34 33 32 31 31 32 33 34 36 40 44 50 54 56 56 56 56 56 56 56 56 56 56 56 56 55 55 54 53 52 52 51 49 48 47 46 45 44 43 42 42 42 42 43
30 29 29 29 29 28 28 27 27 27 27 28 30 31 31 32 33 34 34 35 35 34 34 33 34 34 35 35 35 35 35 35 35 34 34 33 33 34 35 35 36 36 36 36 35 34 34 33 33 33 34 36 39 44 48 51 52 53 55 55 56 56 55 55 54 53 53 54 53 51 50 51 52 53 52 50 48 48 47 45 44 42 41 41 42 43
31 30 29 29 29 29 29 29 29 28 28 28 29 30 31 32 33 34 34 35 35 35 35 34 34 35 35 35 35 35 36 36 36 36 35 34 33 33 34 34 36 37 38 38 38 37 37 36 36 35 35 35 37 40 44 47 49 50 51 53 53 54 55 54 54 53 53 53 52 50 48 50 52 54 53 51 50 50 51 50 48 46 44 43 43 44
32 31 30 29 29 30 30 30 30 30 30 29 29 30 31 32 32 33 34 35 35 36 36 36 35 35 35 35 35 35 36 36 36 36 36 35 34 33 33 33 35 36 37 38 39 39 39 39 39 38 37 36 37 38 41 44 47 48 49 49 50 51 53 54 55 56 56 56 56 55 54 54 57 58 57 56 54 53 52 52 51 50 48 46 45 46
33 32 31 30 30 30 30 30 30 31 31 31 30 30 31 31 32 33 34 34 35 36 36 36 36 36 35 34 34 35 35 35 36 37 37 36 35 34 33 33 33 35 36 37 38 39 40 40 40 40 39 38 38 38 39 42 45 48 49 49 49 49 50 51 52 52 54 56 57 59 60 61 62 62 62 61 59 58 57 55 53 51 50 48 47 48
33 32 32 31 31 31 30 30 31 32 32 32 31 31 31 31 31 32 33 34 35 36 36 36 36 36 36 35 35 35 35 36 36 37 37 37 37 36 34 33 33 34 35 36 37 38 39 40 41 41 41 40 39 39 39 41 43 46 49 50 51 50 49 47 45 45 45 48 51 55 59 61 63 63 64 64 64 63 62 60 57 54 51 50 49 50
35 33 32 32 32 31 31 31 31 32 32 32 33 32 32 31 32 32 33 34 35 36 36 37 37 37 37 37 36 35 35 36 36 36 37 38 38 37 36 34 34 34 34 35 36 37 38 39 40 41 41 41 41 40 40 40 42 44 46 48 50 51 50 48 44 41 41 42 45 49 53 56 58 59 60 61 63 64 64 62 60 58 55 53 52 52
37 35 34 33 32 32 32 32 32 32 32 33 33 33 33 32 32 32 33 33 34 35 36 37 37 37 37 37 35 35 35 36 36 36 37 38 39 39 38 37 36 35 35 35 35 36 37 38 38 39 40 41 41 41 41 41 41 42 43 44 46 48 49 48 46 42 40 40 43 46 49 52 54 55 56 56 57 58 60 61 61 60 58 56 55 54
40 38 36 34 33 33 32 32 32 32 32 33 33 33 34 34 33 33 32 33 33 34 35 36 37 37 37 36 35 35 36 36 36 37 38 38 39 39 39 39 38 37 36 36 36 36 37 37 37 38 38 39 40 41 41 42 42 42 42 42 43 44 46 47 46 43 41 39 40 43 47 51 53 55 56 55 55 54 55 57 59 59 59 58 57 57
41 40 38 36 35 33 33 33 33 33 33 33 33 34 34 34 34 34 33 33 34 34 35 36 37 37 37 36 36 36 36 36 36 37 38 38 38 39 40 40 40 40 39 38 37 37 37 37 37 37 37 37 38 39 40 41 41 42 42 42 42 43 44 45 46 45 42 40 40 41 45 48 51 54 55 55 55 54 54 56 57 57 57 57 57 57
42 41 40 38 36 35 34 33 33 33 34 34 34 34 34 35 35 35 34 34 34 34 35 36 37 37 37 37 37 37 36 35 36 37 38 38 38 39 40 40 40 40 41 40 40 39 38 38 38 37 37 36 36 37 37 39 40 41 42 42 42 42 43 44 45 45 44 43 42 43 45 48 50 52 53 54 54 54 55 56 57 57 57 57 57 57
43 42 41 39 38 37 35 34 34 34 34 34 35 35 35 35 35 36 35 35 34 35 36 36 37 37 37 38 38 37 36 36 37 38 37 37 39 40 40 39 39 40 41 42 42 41 40 39 39 38 38 37 36 36 36 36 38 39 40 41 42 43 43 44 45 45 45 45 45 45 46 48 49 50 51 52 52 54 55 57 58 58 57 57 57 57
44 43 41 40 39 38 37 35 35 34 35 35 35 36 36 36 36 36 36 35 35 36 37 37 37 37 37 38 38 38 37 37 37 37 37 37 39 40 39 38 38 40 41 42 43 43 42 42 40 39 39 38 37 36 36 36 36 38 39 40 41 42 43 44 45 46 46 46 46 46 46 46 45 45 46 48 50 52 54 56 57 57 57 57 57 57
44 43 42 41 40 39 38 37 36 35 35 35 36 36 37 37 37 37 36 36 36 37 38 38 37 37 38 38 38 38 38 38 37 36 36 38 39 40 39 38 39 40 40 41 42 43 44 44 43 41 40 39 39 38 37 37 37 38 39 40 41 42 43 45 46 46 47 47 46 45 45 43 42 42 42 44 45 47 50 52 53 54 55 55 56 56
44 44 43 42 41 39 38 37 36 36 35 36 36 37 37 37 37 37 37 37 38 38 38 38 38 38 38 39 39 39 39 37 36 36 37 38 40 40 39 39 39 40 40 40 42 43 44 44 44 43 42 41 40 40 39 39 39 39 40 40 40 41 42 44 46 47 48 48 47 46 45 44 43 42 43 43 44 45 46 48 49 51 52 52 52 53
45 44 43 42 41 40 39 38 37 36 36 36 36 37 38 38 38 38 38 38 38 39 39 39 39 39 39 39 39 39 38 37 37 37 38 39 39 39 39 39 39 40 40 41 42 43 44 45 45 44 43 42 41 41 41 41 41 41 41 41 41 41 41 43 44 47 48 49 49 48 46 44 44 44 44 45 45 46 46 47 49 50 50 50 50 49
44 44 43 42 42 41 40 39 38 37 37 37 37 37 38 39 39 39 39 39 39 39 39 39 39 39 39 39 39 39 38 37 37 38 39 39 39 39 39 39 40 40 40 40 42 43 44 44 44 44 43 43 42 41 41 42 42 42 42 42 41 41 41 41 42 44 46 48 48 48 46 45 44 43 44 45 46 47 48 48 49 50 51 51 50 48
44 43 43 42 42 41 41 40 39 38 37 37 37 38 39 39 40 40 40 40 40 40 40 40 40 40 40 40 39 39 38 37 37 38 38 39 39 40 39 40 40 40 40 41 42 42 43 44 44 44 44 43 43 42 42 42 42 42 42 42 42 41 41 41 41 42 44 45 46 46 46 45 44 44 44 44 45 46 47 48 49 50 51 51 51 49
43 43 42 42 41 41 41 40 39 39 38 38 38 39 39 40 40 41 41 41 40 40 40 40 40 40 40 40 40 39 38 37 37 37 38 39 39 39 39 40 40 40 39 40 41 42 43 43 44 44 44 43 43 43 42 42 42 42 42 42 42 41 41 41 41 41 42 42 43 44 44 45 45 44 44 44 44 44 45 46 47 49 50 51 52 52
43 43 42 41 41 41 41 41 40 39 39 39 39 39 40 41 41 41 41 41 41 41 41 41 41 41 41 40 40 40 39 37 37 37 38 39 39 39 39 39 40 39 39 40 41 42 42 43 43 44 44 44 43 43 42 42 42 42 42 42 42 41 41 41 41 41 41 41 41 42 42 43 44 44 44 44 44 45 45 46 47 49 50 52 52 53
43 43 41 41 40 41 41 41 40 40 39 39 39 40 41 42 42 42 42 42 42 41 41 41 41 41 41 41 41 40 39 38 38 38 39 39 39 38 39 39 39 39 39 40 40 41 41 42 43 43 43 44 43 43 42 42 42 42 42 42 42 41 41 41 41 41 42 42 42 41 42 42 43 44 44 45 46 46 47 48 49 50 51 52 53 52
43 42 41 40 40 40 41 41 40 40 40 40 40 41 41 42 43 43 43 43 42 42 42 42 42 42 42 41 41 41 40 39 39 39 39 39 38 38 38 38 38 38 39 39 39 40 41 42 42 42 42 42 42 42 42 42 42 42 42 42 41 41 42 42 41 42 42 42 42 42 42 42 42 43 44 45 46 47 48 49 50 50 51 52 52 52
43 42 41 40 40 40 40 40 40 40 40 40 40 41 41 42 43 43 44 44 43 43 43 42 42 42 42 42 42 41 41 40 40 39 39 39 38 38 37 36 36 37 38 38 38 39 40 41 41 42 42 41 41 41 42 41 41 41 41 41 42 42 42 42 42 42 42 42 42 42 42 42 42 43 44 45 46 47 48 48 49 50 51 51 51 51
43 42 41 40 40 40 40 40 40 40 40 40 40 41 41 42 43 44 44 44 44 44 43 43 43 43 43 42 42 42 41 41 40 39 39 38 38 37 35 34 34 36 37 38 38 38 39 39 40 40 40 41 41 41 41 41 41 40 41 41 42 43 43 42 42 42 42 42 42 42 42 42 42 42 43 44 45 46 47 48 48 49 50 50 51 51
43 42 42 41 40 40 40 40 40 40 40 40 40 41 42 42 43 44 45 45 44 44 44 43 43 43 43 43 42 42 41 41 40 39 39 38 38 36 34 33 34 35 37 37 37 37 37 37 38 38 39 39 40 40 40 40 40 40 40 41 42 43 43 43 43 43 43 43 43 42 42 42 42 42 43 43 44 45 46 47 48 49 49 50 50 51
43 43 42 41 40 40 40 40 40 40 40 40 40 40 41 42 43 44 45 45 45 45 44 44 44 43 43 43 42 42 41 41 40 40 39 38 38 37 35 34 34 35 36 36 36 35 35 35 36 37 38 38 39 39 40 39 39 39 39 40 41 42 43 44 44 44 44 44 44 43 43 43 43 43 43 43 43 44 44 45 47 48 49 50 51 52
43 43 42 41 41 41 41 40 40 40 40 40 40 40 41 41 43 44 45 45 45 45 45 44 44 44 43 43 43 42 42 41 41 40 39 39 38 37 36 35 35 35 36 35 34 33 33 33 34 35 36 36 37 38 39 38 38 38 38 39 40 41 42 44 44 44 45 45 45 45 45 44 44 44 44 43 43 43 43 44 45 46 47 48 50 51
42 42 41 41 41 41 41 41 40 40 39 39 39 39 40 41 42 43 44 45 45 45 45 45 44 44 43 43 43 42 42 41 41 40 40 39 39 38 37 36 36 35 35 35 33 32 31 32 33 33 34 34 35 36 36 36 36 36 36 37 38 40 42 43 43 44 45 46 47 47 46 46 46 45 45 45 44 44 44 43 44 44 44 45 46 48
41 41 41 41 41 41 41 41 40 40 39 38 38 39 39 40 41 43 44 45 45 45 45 45 44 44 44 43 43 42 42 42 41 41 40 39 39 38 38 37 37 36 35 34 33 32 32 32 32 32 32 32 33 34 34 34 34 34 35 36 37 38 40 41 42 43 45 46 47 47 48 48 47 47 47 46 46 45 45 44 44 44 44 44 44 44
40 40 40 41 41 41 41 41 40 39 39 39 38 38 38 39 40 42 43 44 45 45 45 45 44 44 44 43 42 42 42 41 41 41 40 40 39 39 38 38 37 36 35 34 33 32 32 32 32 31 31 31 32 32 32 32 33 33 34 35 35 36 37 39 40 41 43 44 46 47 48 49 49 49 49 48 47 47 46 46 45 45 44 44 44 43
38 39 39 40 40 40 41 41 40 40 39 39 38 38 37 38 39 41 42 43 44 45 45 45 44 44 44 43 42 42 42 41 41 40 40 40 39 39 39 38 37 36 35 34 34 33 32 32 31 31 31 31 31 31 31 31 32 33 34 34 35 35 36 37 38 39 40 42 44 45 47 48 49 50 50 50 49 48 48 47 47 46 46 45 45 44
37 38 38 39 39 40 40 40 40 40 39 39 38 37 37 38 39 40 41 43 43 44 45 45 45 44 44 43 42 42 42 41 41 40 40 40 39 39 39 39 38 37 36 35 34 34 33 33 32 31 30 30 30 30 30 30 31 32 33 33 34 34 35 35 36 36 37 39 40 42 44 46 48 49 50 50 50 50 50 49 48 48 47 46 46 45
37 37 37 38 38 39 40 40 40 40 39 38 37 36 36 37 38 39 40 42 43 43 44 44 44 44 43 42 42 42 41 41 40 40 40 40 39 39 39 39 38 38 36 35 35 34 34 34 33 32 31 30 29 29 29 29 30 31 31 32 33 33 34 34 34 35 35 36 37 39 41 43 45 47 49 49 50 50 50 50 49 49 48 47 47 47
37 37 37 37 38 38 39 39 40 40 39 38 37 36 36 36 37 38 39 41 42 43 44 44 44 43 43 42 42 41 41 41 40 40 39 39 39 39 39 39 39 38 37 36 35 35 35 35 34 33 32 30 29 28 27 28 28 29 29 30 31 32 33 33 34 34 34 35 35 36 38 40 42 44 46 48 49 49 49 50 50 49 49 48 48 47
Wind_Direction
279 278 278 274 270 264 257 250 247 247 249 250 251 252 253 254 255 255 252 249 246 245 244 239 235 233 234 235 235 234 231 228 227 227 228 229 231 232 231 230 227 225 225 224 222 219 217 217 218 219 219 218 217 217 217 218 220 221 222 222 223 223 225 226 227 228 228 228 227 226 225 225 226 226 227 228 229 230 231 231 232 232 232 232 232 232
277 277 277 275 272 267 261 253 248 246 247 249 252 253 254 256 258 259 258 253 249 248 249 247 239 232 229 230 231 232 232 230 229 228 227 226 226 228 228 228 226 224 223 223 222 220 218 217 218 219 219 218 217 217 218 219 220 221 221 222 222 222 223 224 226 227 228 228 228 227 226 225 226 226 227 227 228 229 230 231 231 231 232 232 233 233
271 272 273 274 273 270 265 258 252 248 246 247 249 251 253 255 259 262 262 258 253 250 249 249 244 235 229 227 228 230 232 232 230 228 225 222 221 222 225 226 225 223 221 220 220 220 219 218 217 217 217 217 217 218 219 219 220 221 221 222 222 222 222 223 225 226 227 228 228 227 226 226 225 225 226 227 228 229 229 230 230 231 231 232 233 234
267 267 268 270 271 270 266 262 257 252 249 249 249 250 251 253 257 260 262 259 255 251 248 246 243 237 232 229 229 230 232 232 231 228 225 221 219 220 224 226 226 225 222 219 217 217 219 219 217 215 214 214 216 218 220 221 222 222 222 223 223 223 222 223 224 226 227 227 227 227 226 225 225 225 225 226 228 229 229 230 230 231 231 232 233 234
266 264 264 266 267 268 267 264 261 256 253 252 252 252 252 252 254 256 258 257 254 251 248 245 241 236 233 231 231 232 233 233 231 229 226 224 222 223 226 229 229 229 228 225 221 218 219 220 219 216 213 212 213 215 218 221 224 225 225 225 224 224 223 224 225 226 227 227 226 225 225 224 224 224 225 226 227 229 230 230 231 231 231 232 233 234
266 265 263 263 263 264 265 265 262 259 257 256 256 257 257 256 254 253 253 252 251 249 246 244 241 237 233 230 229 229 230 232 232 231 229 229 229 229 230 232 233 233 232 230 227 224 223 223 223 220 217 213 212 212 215 219 223 226 227 227 226 226 225 225 226 227 227 226 225 224 224 224 224 224 225 226 227 229 230 231 231 232 232 233 234 234
267 266 265 263 262 262 263 264 263 261 259 258 259 261 262 262 260 257 253 251 250 248 245 241 238 235 232 228 225 223 223 225 227 227 227 228 229 230 230 231 233 235 235 233 230 228 227 226 226 224 221 217 214 212 213 216 221 224 226 227 227 227 227 227 227 228 228 226 225 225 225 226 226 226 226 227 228 229 231 231 232 233 234 235 235 236
267 265 265 264 263 262 261 262 262 262 260 259 259 261 264 266 265 263 258 254 251 250 248 243 238 233 229 225 222 220 220 221 223 224 224 223 224 225 227 229 231 232 233 233 231 229 228 228 227 227 225 221 216 213 213 215 218 222 225 226 227 227 228 228 229 229 229 228 227 227 228 229 229 229 228 229 229 230 231 232 232 233 235 236 237 237
268 267 265 265 264 263 261 261 261 261 261 259 258 258 261 264 265 265 262 258 254 251 251 249 246 240 235 230 228 228 231 234 235 232 229 226 226 227 229 230 230 230 230 230 230 229 228 228 228 228 227 224 220 217 215 215 217 221 224 226 226 226 227 228 229 230 231 231 231 231 231 232 232 231 230 230 231 231 232 232 233 233 235 236 237 238
270 268 267 265 264 264 263 261 260 259 259 259 258 256 256 258 260 261 261 259 255 252 251 251 251 250 248 245 245 247 252 255 256 253 245 239 235 234 235 236 236 233 231 230 229 228 227 227 228 228 228 227 224 222 219 218 218 220 223 225 226 226 227 228 229 230 231 232 232 232 233 233 233 232 232 232 232 232 232 233 233 233 234 236 237 239
273 270 268 267 266 265 264 263 261 259 258 258 257 256 255 254 255 256 257 256 255 253 250 249 249 250 252 253 255 258 260 260 260 258 255 251 248 246 245 245 244 240 237 233 231 229 227 226 226 226 227 226 226 224 222 221 220 220 222 224 226 227 228 229 230 231 232 232 233 233 233 234 234 234 233 233 233 233 233 233 234 234 234 235 237 238
276 273 270 268 267 266 265 264 263 261 260 258 257 256 255 254 253 252 252 253 253 252 250 248 246 245 246 247 249 250 250 249 248 249 249 249 249 250 252 254 253 249 244 239 235 231 229 227 226 225 226 226 225 224 223 221 220 220 221 222 225 227 229 230 232 232 233 233 233 234 234 234 235 235 234 234 234 234 234 234 234 234 235 235 236 238
277 275 273 270 269 267 266 265 265 264 262 260 258 257 256 255 254 253 252 251 251 250 250 248 245 242 241 240 239 238 237 236 237 239 241 243 244 246 249 252 254 254 251 245 240 236 233 231 230 228 227 227 226 225 224 223 221 221 221 221 223 225 228 230 232 233 233 234 234 234 235 235 236 236 236 235 235 235 235 235 235 235 235 236 237 237
278 277 276 274 272 270 268 266 266 265 264 263 261 259 257 257 256 255 254 253 251 250 249 248 245 242 239 238 237 235 234 234 235 236 238 239 240 241 244 247 250 252 252 250 246 241 238 236 234 232 230 229 229 229 228 227 226 224 223 223 223 224 226 229 231 232 233 233 234 234 235 235 236 236 236 236 236 236 236 236 236 236 236 236 237 238
278 277 276 276 275 274 271 268 266 266 265 265 263 262 260 259 258 257 256 255 253 252 251 250 247 243 240 239 238 238 238 239 239 239 240 239 239 239 240 243 245 247 248 249 248 245 242 240 238 236 233 232 232 232 233 232 230 229 227 225 225 225 226 228 230 231 232 233 233 234 234 235 235 236 236 236 237 237 237 237 237 237 237 237 238 239
278 277 276 275 275 275 274 271 268 267 266 265 265 264 262 260 259 258 258 257 256 255 254 253 251 248 245 242 240 240 240 242 243 244 244 243 241 239 240 241 242 243 244 246 247 247 245 244 242 240 237 234 233 234 236 236 235 232 229 227 227 227 228 228 230 231 232 232 232 233 234 234 235 235 235 235 236 236 237 237 237 237 237 237 238 239
279 278 276 275 275 275 274 273 271 268 266 265 264 264 263 262 262 261 261 260 259 258 257 255 254 252 250 248 246 243 242 242 243 244 245 245 243 242 241 241 242 242 242 243 245 246 246 246 246 244 242 238 236 236 237 238 237 234 230 228 228 229 229 229 229 230 230 230 231 231 232 233 233 234 234 234 234 235 235 236 237 237 237 237 238 239
280 279 277 276 275 274 274 274 273 271 268 266 264 264 264 264 264 264 263 262 261 260 259 258 257 256 254 253 251 249 247 245 244 243 243 243 242 241 241 242 243 243 243 243 243 244 245 247 248 249 247 244 240 238 237 238 237 234 230 229 230 231 231 230 229 228 228 228 229 230 230 231 232 232 232 232 232 233 234 235 235 236 236 237 238 239
280 279 278 276 275 274 273 274 274 272 270 267 265 265 264 264 264 264 263 263 262 262 261 260 259 258 257 256 255 254 253 250 248 246 244 243 241 240 240 241 242 243 244 244 243 244 244 246 248 250 250 248 244 241 238 237 236 235 233 233 235 235 234 231 228 226 225 226 226 227 228 230 231 231 230 229 230 231 233 234 235 236 237 237 238 239
281 280 278 277 275 273 273 273 273 273 272 269 267 266 264 264 263 263 263 263 263 262 262 261 261 259 259 258 258 257 256 254 253 251 248 245 242 240 239 240 241 243 244 244 244 244 244 245 246 248 250 250 248 243 239 236 235 235 235 237 238 239 237 234 230 227 225 224 224 224 225 228 229 229 228 228 228 230 232 234 235 236 237 238 240 240
281 280 279 278 275 273 272 272 273 273 272 271 269 267 265 264 263 263 263 263 263 263 262 262 261 260 260 259 258 257 256 255 254 253 251 248 245 242 240 240 241 242 243 244 244 244 244 245 245 246 248 249 249 246 242 237 235 234 234 235 237 237 237 236 235 234 232 230 228 226 226 227 229 229 229 229 229 230 232 233 235 236 237 238 240 241
281 280 279 278 276 274 272 271 271 272 272 272 271 269 267 266 265 264 263 263 263 262 262 262 261 261 260 260 258 257 256 255 254 253 253 251 248 244 242 241 241 242 243 244 244 244 244 244 245 245 246 247 247 247 245 241 237 235 235 235 236 236 236 236 238 239 240 239 236 233 231 231 232 232 231 231 232 232 233 234 234 234 235 238 239 240
281 280 279 278 276 275 273 271 270 270 270 271 271 270 269 268 267 265 264 263 263 262 262 261 261 261 260 259 258 257 256 254 253 252 252 251 249 247 244 242 241 242 242 243 244 245 245 245 244 244 244 245 245 245 245 243 240 239 238 237 237 237 236 236 238 240 243 243 241 239 236 235 235 235 235 235 235 236 236 235 234 233 234 236 239 240
279 279 278 277 276 275 274 272 270 269 269 270 270 270 270 269 267 266 265 264 263 262 262 261 260 260 260 259 258 256 255 254 253 252 252 251 250 249 247 245 243 242 242 243 244 244 245 245 245 244 244 244 244 244 244 243 242 241 240 240 240 239 237 236 236 239 242 243 243 242 240 238 237 237 238 238 238 238 237 236 234 233 233 235 237 239
276 276 276 276 275 275 274 272 271 269 268 268 269 270 270 269 267 266 265 265 264 264 263 262 261 259 259 258 258 258 256 255 254 253 252 252 251 250 249 248 246 244 243 243 243 244 245 245 245 245 244 243 243 243 243 243 243 242 242 242 242 241 238 236 235 236 238 240 240 240 239 239 238 238 238 238 238 237 236 235 234 233 232 234 236 238
273 273 273 274 274 273 273 272 271 270 268 267 267 268 268 268 268 267 267 267 266 266 264 262 260 259 258 258 258 258 257 257 256 255 254 253 251 250 250 249 248 247 246 245 244 245 245 245 245 244 244 243 243 243 243 243 244 243 243 243 243 242 239 237 234 234 235 236 236 236 235 235 236 236 237 237 236 235 235 234 234 234 234 235 236 238
271 271 271 271 271 271 271 271 271 270 269 268 267 266 267 267 267 267 267 267 267 267 265 263 261 260 259 258 258 257 257 256 256 255 255 254 252 251 250 250 249 249 249 247 246 246 245 245 245 245 244 244 243 243 243 243 244 244 244 244 244 243 241 237 234 233 233 234 234 234 233 233 234 234 235 235 234 233 234 235 237 237 237 238 239 240
270 270 269 269 268 268 269 269 269 269 268 268 267 266 266 266 266 266 266 266 267 267 265 264 262 261 260 258 257 256 256 256 256 255 255 255 254 253 251 250 249 249 250 249 248 247 246 246 246 246 245 244 243 243 243 243 244 244 245 245 244 244 241 238 235 233 232 232 232 233 233 234 234 235 236 235 234 233 234 236 239 240 240 240 240 241
270 269 268 267 266 266 266 266 266 267 267 266 266 265 265 265 265 264 265 266 266 266 264 263 262 262 260 258 257 256 255 255 255 255 255 255 254 254 253 251 249 249 249 249 249 248 247 247 246 246 246 245 245 244 243 243 244 245 245 245 245 244 242 239 236 234 232 232 232 233 233 234 236 237 238 238 238 238 238 239 241 242 242 241 241 242
269 268 267 266 265 264 263 263 263 263 264 264 264 264 264 264 263 263 264 265 265 264 263 263 263 262 261 260 258 257 255 254 254 254 254 254 254 254 253 252 250 248 248 248 248 248 248 247 246 246 245 245 245 245 244 244 244 245 245 245 245 244 242 239 237 235 234 233 233 234 234 235 236 237 239 240 241 241 241 242 243 243 243 243 243 243
268 268 267 266 264 263 262 261 260 260 261 261 262 262 262 262 262 262 262 263 263 262 262 263 263 262 262 261 259 258 255 254 253 254 254 254 254 254 253 252 251 249 248 247 247 247 247 246 245 245 245 245 245 245 245 245 245 246 246 246 245 244 242 240 238 237 235 235 235 235 236 236 237 238 239 240 241 242 242 243 243 243 243 243 243 244
267 267 266 265 264 262 261 259 258 258 257 258 258 259 260 260 261 261 261 261 261 261 262 262 262 262 261 260 260 258 257 255 255 254 254 254 253 253 253 252 251 250 249 248 247 247 247 246 245 244 243 243 244 245 246 246 246 247 247 247 246 244 243 241 239 238 236 236 236 236 236 237 238 239 240 240 240 240 240 241 241 241 241 241 242 243
266 266 265 265 264 262 261 259 257 256 255 255 255 256 257 258 259 259 259 259 260 260 261 261 261 261 260 260 260 259 258 258 256 255 254 253 253 253 253 252 251 251 250 249 248 248 247 247 246 245 243 243 243 243 245 246 247 247 248 248 247 245 243 241 239 237 236 235 234 234 234 235 236 237 239 240 240 240 240 240 239 239 239 239 239 239
265 264 264 263 263 262 260 259 257 255 253 253 253 253 254 255 256 257 257 258 258 259 259 259 260 260 260 260 260 260 260 259 257 256 255 254 253 253 252 252 251 251 251 250 250 249 249 248 248 247 245 244 243 242 243 245 246 247 248 248 248 247 245 242 238 236 234 232 231 230 230 230 232 234 236 238 240 240 241 240 240 239 239 238 237 236
264 263 262 262 262 261 260 259 257 254 252 251 250 251 251 252 253 254 255 255 256 257 257 258 258 259 259 260 260 260 259 259 258 257 256 255 254 254 253 252 252 251 251 251 251 250 250 250 249 249 247 246 244 243 243 243 245 246 247 248 248 248 247 244 240 236 232 230 228 227 227 227 228 230 233 235 237 238 239 240 240 241 240 240 239 237
262 262 261 260 260 260 259 258 256 254 252 250 249 249 249 250 250 251 252 253 254 255 256 256 257 258 258 258 259 259 259 258 258 258 257 256 255 254 253 252 251 251 251 251 251 251 251 250 250 250 249 247 246 244 243 243 243 244 246 247 247 248 248 247 244 240 235 231 228 227 226 226 227 229 230 232 234 235 237 238 239 240 241 242 242 241
261 260 259 259 258 258 258 258 256 255 252 250 249 248 247 248 248 249 249 250 251 252 254 255 256 257 257 258 258 258 258 258 258 257 257 256 256 255 254 252 252 251 251 251 251 251 251 251 250 250 250 249 247 246 244 243 243 243 244 245 246 247 247 248 247 245 241 237 234 231 230 229 229 230 231 232 233 234 236 236 238 239 240 242 243 243
260 259 258 257 257 257 257 257 256 254 252 250 249 247 247 247 247 247 247 248 249 250 251 252 254 255 256 256 257 257 257 257 257 257 256 256 256 255 254 253 252 251 251 250 250 250 251 251 251 250 250 249 249 248 246 244 243 242 243 243 244 245 246 247 248 248 246 244 240 237 235 234 233 233 234 235 236 237 238 239 239 240 240 241 242 242
259 258 256 255 255 255 255 255 255 254 252 250 248 247 246 246 246 246 246 246 247 247 248 250 251 252 254 255 255 256 256 256 256 256 256 256 256 255 255 254 253 252 251 250 250 250 250 251 251 250 250 250 249 249 247 246 244 242 242 242 243 243 244 245 246 247 248 247 246 243 241 239 237 237 237 238 239 240 241 241 242 242 242 241 241 240
258 257 255 253 253 253 253 254 253 253 251 250 248 247 246 246 246 246 246 245 245 246 246 247 249 250 251 252 253 254 254 255 255 255 256 256 255 255 254 254 254 253 252 251 250 250 250 250 250 250 250 250 250 249 248 247 245 243 242 241 241 241 242 242 243 245 246 247 247 246 245 243 242 240 240 240 240 241 242 242 242 243 242 241 240 239
259 256 254 252 251 251 251 251 252 252 251 250 248 247 246 245 245 245 245 245 245 244 245 245 246 247 249 250 251 252 253 253 254 254 255 255 255 254 253 253 254 254 254 252 251 250 250 250 250 250 250 250 250 249 249 247 246 244 242 241 241 240 240 241 241 242 243 245 246 246 246 246 244 243 242 242 242 242 242 242 242 242 241 241 240 238
260 257 254 251 250 249 249 250 250 250 250 249 248 247 246 245 245 245 245 245 244 244 244 244 244 245 246 248 249 250 251 252 253 253 254 254 254 253 251 250 251 253 254 253 252 251 250 249 249 249 250 250 250 250 249 248 247 245 243 242 241 240 240 240 240 240 241 242 243 244 245 245 245 245 244 244 243 243 242 242 241 241 241 240 239 238
261 258 255 252 249 248 247 248 249 249 249 249 248 247 246 245 244 244 244 244 244 243 243 243 243 244 244 245 247 248 250 251 251 252 252 253 252 251 249 247 248 251 253 253 252 251 250 250 249 249 249 249 249 249 249 248 247 245 244 242 241 240 240 239 239 238 239 239 240 241 242 243 244 244 244 244 244 244 244 243 243 242 241 241 240 239
263 260 257 253 250 248 247 247 247 248 248 248 247 246 245 245 244 244 244 244 243 243 243 243 243 243 243 244 245 246 247 248 249 250 250 251 251 250 248 246 247 249 251 251 251 250 250 251 251 251 251 250 249 249 248 248 247 245 244 242 241 241 240 239 239 238 238 238 238 239 240 241 242 243 243 244 244 245 245 245 245 244 244 243 242 241
266 263 259 255 251 248 246 246 245 246 246 247 247 246 245 244 244 244 243 243 243 243 242 242 242 242 242 242 243 244 245 246 247 248 249 249 249 249 248 246 246 246 248 249 249 249 249 250 251 252 252 250 249 248 247 247 246 245 244 242 241 241 240 240 239 239 238 238 237 237 238 239 240 241 241 242 243 244 244 245 245 246 246 245 245 244
267 265 261 257 253 250 247 245 244 245 245 246 246 245 245 244 244 243 243 243 243 242 242 242 242 242 242 242 242 243 244 245 246 246 247 247 248 248 247 246 245 245 245 246 246 247 247 248 249 251 251 250 249 247 247 246 246 245 244 243 242 241 241 241 240 240 239 238 238 237 237 238 238 239 240 240 241 242 243 244 244 245 246 246 246 246
268 265 262 259 255 251 248 246 244 244 244 244 244 244 244 244 243 243 243 242 242 242 241 241 241 241 241 241 241 242 243 243 244 245 245 246 246 246 246 246 245 244 244 244 244 245 246 246 247 248 248 248 248 248 248 247 247 246 245 244 243 243 242 242 241 241 240 240 239 239 238 238 238 238 238 239 240 240 241 242 243 243 244 245 246 246
267 265 263 260 256 253 249 246 244 243 243 243 243 243 244 243 243 243 242 242 241 241 241 241 241 241 241 241 241 241 242 242 243 243 244 244 245 245 245 245 244 243 242 242 243 244 244 245 245 245 246 246 247 248 249 249 249 248 247 246 245 244 244 243 242 242 241 241 241 240 239 239 238 238 238 238 239 239 240 240 241 242 242 243 244 245
267 265 263 260 257 254 250 247 245 243 242 242 242 243 243 243 242 242 241 241 241 240 240 240 240 240 240 240 240 241 241 241 242 242 242 243 243 243 244 243 243 242 241 241 241 242 243 243 243 243 244 245 247 248 249 250 250 250 249 248 247 246 245 245 244 244 243 242 242 241 240 240 239 239 239 239 239 239 239 240 240 241 241 242 243 244
266 265 263 261 258 255 251 248 245 243 242 242 242 242 242 242 241 241 241 240 240 240 240 240 240 240 240 240 240 240 241 241 241 241 241 241 241 242 242 242 242 241 239 239 240 241 242 242 242 242 243 244 246 248 249 250 250 250 250 250 248 247 246 246 246 245 244 244 243 242 241 240 240 239 239 239 239 239 239 239 240 241 241 241 242 243
265 264 263 261 258 255 252 249 246 244 242 242 241 241 241 241 241 240 240 240 239 239 239 239 239 239 239 240 240 240 241 241 241 240 240 240 240 241 241 241 240 239 238 237 238 239 241 242 242 243 243 244 245 247 248 249 249 250 250 250 249 248 247 247 246 246 245 245 245 243 242 241 240 240 239 239 239 239 239 239 240 240 241 242 242 243
Height
3042 3042 3043 3043 3043 3043 3043 3043 3044 3045 3045 3046 3047 3047 3048 3049 3050 3050 3050 3050 3051 3053 3055 3056 3057 3058 3058 3058 3058 3059 3060 3062 3065 3068 3070 3072 3074 3075 3074 3073 3073 3075 3076 3078 3080 3082 3084 3087 3090 3093 3095 3096 3098 3099 3101 3104 3106 3108 3109 3111 3113 3114 3115 3117 3118 3120 3122 3124 3125 3127 3129 3130 3131 3133 3135 3136 3137 3139 3140 3141 3142 3143 3144 3145 3147 3148
3041 3041 3041 3041 3042 3042 3042 3042 3042 3042 3043 3044 3045 3046 3046 3047 3048 3048 3048 3049 3049 3050 3051 3052 3053 3054 3055 3055 3056 3057 3058 3060 3062 3065 3069 3071 3072 3074 3074 3073 3072 3073 3075 3077 3078 3079 3081 3084 3087 3090 3092 3094 3095 3097 3098 3100 3104 3106 3108 3109 3110 3111 3113 3114 3115 3117 3119 3121 3123 3124 3126 3127 3129 3130 3132 3134 3135 3136 3137 3139 3140 3141 3142 3143 3145 3146
3040 3040 3040 3040 3040 3040 3040 3040 3040 3041 3041 3042 3043 3044 3045 3045 3046 3046 3046 3046 3047 3048 3048 3049 3050 3050 3051 3052 3053 3055 3056 3057 3060 3062 3065 3068 3070 3071 3072 3072 3072 3074 3075 3076 3078 3079 3080 3081 3083 3086 3088 3090 3092 3094 3095 3098 3100 3102 3104 3106 3107 3109 3110 3112 3113 3115 3116 3118 3120 3121 3123 3125 3127 3128 3130 3131 3133 3134 3135 3136 3137 3138 3140 3141 3142 3144
3039 3039 3039 3039 3039 3039 3039 3039 3039 3040 3040 3040 3041 3042 3043 3043 3044 3045 3045 3045 3045 3045 3046 3046 3047 3048 3049 3050 3051 3052 3054 3055 3057 3060 3062 3065 3066 3067 3068 3069 3070 3071 3072 3072 3075 3077 3078 3078 3079 3081 3084 3086 3089 3091 3093 3095 3097 3099 3100 3103 3104 3105 3107 3109 3110 3112 3114 3115 3117 3119 3121 3122 3124 3126 3127 3129 3130 3131 3133 3134 3135 3136 3137 3139 3140 3141
3037 3037 3038 3038 3038 3037 3037 3038 3038 3038 3038 3039 3039 3040 3040 3041 3042 3043 3043 3044 3044 3044 3045 3045 3046 3046 3047 3048 3049 3050 3052 3053 3054 3056 3058 3060 3062 3064 3065 3065 3066 3067 3068 3069 3070 3071 3074 3075 3075 3077 3079 3081 3084 3087 3090 3092 3095 3096 3098 3100 3102 3103 3105 3106 3108 3110 3111 3113 3115 3116 3118 3120 3121 3123 3125 3126 3128 3129 3130 3131 3132 3133 3135 3136 3137 3139
3036 3036 3036 3036 3036 3036 3036 3036 3036 3036 3036 3037 3038 3038 3039 3039 3040 3041 3042 3042 3043 3044 3044 3044 3045 3045 3046 3046 3047 3048 3050 3051 3052 3053 3055 3057 3059 3060 3062 3063 3064 3064 3064 3065 3066 3067 3069 3070 3072 3073 3075 3078 3080 3083 3086 3090 3092 3094 3096 3098 3100 3101 3103 3104 3106 3107 3109 3111 3112 3114 3115 3117 3119 3121 3122 3123 3125 3126 3128 3129 3130 3131 3132 3133 3135 3136
3034 3034 3034 3034 3034 3035 3035 3034 3034 3035 3035 3035 3036 3036 3036 3037 3037 3038 3039 3040 3041 3042 3043 3043 3044 3044 3044 3045 3045 3046 3047 3049 3050 3052 3053 3055 3056 3058 3060 3061 3062 3061 3060 3061 3062 3064 3066 3067 3069 3070 3072 3075 3077 3080 3083 3086 3089 3091 3094 3095 3097 3099 3100 3102 3103 3105 3107 3108 3110 3111 3112 3114 3116 3117 3119 3120 3122 3124 3125 3126 3127 3128 3130 3131 3132 3134
3031 3032 3032 3032 3033 3033 3033 3033 3032 3033 3033 3033 3034 3035 3035 3035 3035 3035 3036 3038 3039 3040 3041 3041 3042 3043 3043 3044 3044 3045 3045 3047 3048 3050 3051 3053 3054 3055 3057 3059 3060 3060 3060 3060 3060 3061 3064 3065 3067 3069 3070 3072 3075 3077 3080 3083 3086 3088 3090 3092 3094 3096 3097 3099 3100 3102 3103 3105 3107 3109 3110 3112 3113 3115 3116 3118 3120 3121 3122 3124 3125 3126 3127 3129 3130 3131
3029 3029 3030 3030 3030 3031 3031 3031 3031 3031 3031 3032 3032 3033 3033 3034 3034 3034 3035 3035 3036 3038 3039 3040 3040 3041 3042 3042 3043 3044 3045 3045 3047 3048 3049 3050 3051 3052 3053 3054 3056 3058 3060 3060 3060 3060 3061 3063 3065 3067 3069 3071 3073 3075 3077 3080 3083 3085 3087 3089 3091 3093 3094 3096 3097 3099 3101 3102 3104 3105 3107 3109 3110 3112 3113 3115 3117 3118 3120 3121 3122 3124 3125 3126 3127 3129
3026 3027 3027 3028 3028 3028 3029 3029 3030 3030 3030 3030 3030 3031 3031 3032 3032 3033 3033 3034 3034 3035 3036 3037 3038 3039 3040 3041 3042 3043 3044 3045 3046 3047 3048 3049 3050 3050 3050 3051 3052 3054 3056 3058 3060 3061 3061 3062 3064 3065 3067 3069 3071 3073 3075 3078 3080 3082 3084 3086 3088 3089 3091 3092 3094 3096 3098 3100 3101 3102 3104 3105 3107 3109 3110 3112 3114 3115 3117 3118 3120 3121 3122 3124 3125 3126
3025 3025 3025 3025 3026 3026 3026 3026 3027 3028 3028 3029 3029 3029 3030 3030 3031 3031 3032 3032 3033 3033 3034 3035 3036 3037 3038 3039 3040 3041 3042 3043 3044 3045 3046 3048 3049 3049 3050 3050 3050 3051 3052 3055 3057 3060 3061 3061 3062 3064 3066 3067 3069 3071 3073 3075 3077 3079 3081 3083 3085 3086 3088 3089 3091 3093 3094 3096 3097 3099 3101 3102 3104 3105 3107 3109 3110 3112 3114 3115 3117 3118 3120 3121 3122 3124
3022 3023 3023 3023 3024 3024 3024 3024 3024 3025 3025 3026 3027 3027 3028 3028 3029 3030 3030 3031 3031 3032 3032 3032 3033 3035 3035 3036 3038 3039 3040 3041 3042 3043 3045 3046 3047 3048 3048 3049 3050 3050 3050 3051 3053 3055 3058 3059 3060 3062 3063 3065 3066 3068 3070 3071 3073 3075 3078 3080 3081 3083 3085 3086 3088 3090 3091 3093 3094 3096 3097 3099 3100 3102 3104 3106 3107 3109 3110 3112 3114 3115 3117 3118 3120 3121
3020 3020 3021 3021 3021 3021 3022 3022 3022 3023 3023 3024 3025 3025 3026 3026 3027 3027 3028 3029 3030 3030 3030 3031 3031 3032 3033 3035 3035 3037 3038 3039 3040 3042 3043 3044 3045 3045 3046 3047 3048 3048 3049 3050 3051 3052 3054 3056 3058 3059 3060 3062 3063 3065 3067 3068 3070 3072 3074 3075 3078 3080 3082 3084 3085 3086 3088 3089 3091 3093 3094 3096 3098 3099 3101 3103 3104 3106 3107 3109 3110 3112 3114 3115 3117 3119
3019 3019 3019 3019 3019 3019 3020 3020 3020 3020 3020 3021 3022 3023 3024 3024 3025 3025 3026 3027 3027 3028 3029 3029 3030 3031 3032 3033 3034 3035 3036 3037 3038 3039 3040 3041 3042 3043 3044 3045 3045 3046 3047 3048 3049 3050 3052 3053 3055 3056 3057 3059 3060 3061 3063 3065 3067 3069 3070 3072 3074 3076 3078 3080 3082 3083 3085 3086 3088 3089 3091 3093 3094 3096 3098 3099 3101 3103 3105 3106 3108 3109 3111 3113 3114 3115
3017 3017 3017 3017 3017 3017 3017 3018 3018 3018 3018 3019 3019 3020 3021 3022 3022 3023 3023 3024 3025 3026 3027 3027 3028 3029 3030 3031 3032 3033 3034 3035 3036 3036 3037 3039 3040 3041 3042 3043 3043 3044 3045 3046 3046 3048 3049 3050 3052 3053 3055 3056 3057 3058 3059 3061 3063 3065 3067 3069 3071 3073 3075 3077 3079 3080 3081 3083 3084 3086 3087 3089 3091 3092 3094 3096 3097 3099 3101 3103 3105 3106 3108 3109 3111 3112
3015 3015 3015 3015 3015 3015 3015 3015 3015 3015 3016 3016 3017 3018 3018 3019 3019 3020 3020 3021 3022 3023 3024 3025 3026 3027 3028 3029 3030 3031 3032 3033 3033 3034 3035 3036 3037 3038 3039 3040 3041 3041 3042 3043 3044 3045 3047 3048 3049 3050 3051 3053 3054 3055 3056 3057 3059 3061 3063 3065 3068 3070 3072 3074 3075 3076 3078 3079 3081 3083 3085 3086 3087 3089 3090 3092 3094 3096 3098 3100 3101 3103 3105 3106 3107 3109
3012 3013 3013 3013 3013 3013 3013 3013 3013 3013 3014 3014 3015 3015 3015 3015 3016 3017 3018 3019 3020 3021 3021 3022 3023 3025 3026 3027 3028 3028 3029 3030 3030 3031 3032 3033 3034 3035 3036 3037 3038 3038 3040 3040 3042 3043 3044 3045 3046 3047 3048 3050 3051 3053 3054 3055 3056 3057 3060 3062 3065 3067 3068 3070 3071 3073 3075 3076 3078 3080 3081 3083 3084 3085 3087 3089 3090 3092 3094 3096 3098 3100 3101 3103 3104 3105
3010 3010 3010 3011 3011 3011 3011 3011 3011 3011 3011 3012 3012 3012 3012 3013 3013 3014 3015 3016 3017 3017 3018 3019 3020 3022 3023 3024 3025 3025 3026 3027 3027 3027 3028 3030 3031 3032 3033 3034 3035 3035 3036 3038 3039 3040 3041 3042 3043 3044 3045 3047 3048 3049 3050 3051 3052 3054 3056 3058 3060 3063 3065 3066 3068 3069 3071 3072 3074 3076 3077 3079 3081 3082 3084 3085 3087 3089 3091 3093 3094 3096 3097 3099 3100 3102
3007 3008 3008 3008 3008 3008 3009 3009 3008 3008 3009 3009 3009 3010 3010 3010 3011 3011 3012 3012 3013 3014 3015 3016 3017 3019 3020 3021 3022 3023 3024 3024 3024 3025 3025 3026 3027 3029 3030 3031 3031 3032 3033 3035 3036 3037 3039 3040 3040 3041 3043 3044 3045 3045 3047 3048 3049 3051 3052 3054 3056 3057 3060 3061 3063 3065 3067 3069 3071 3073 3074 3075 3077 3079 3080 3082 3084 3086 3088 3089 3091 3092 3094 3095 3097 3098
3004 3005 3006 3006 3006 3006 3006 3006 3006 3006 3006 3006 3007 3007 3008 3008 3009 3009 3009 3009 3010 3011 3012 3013 3014 3015 3017 3018 3019 3020 3021 3021 3021 3022 3022 3023 3024 3026 3027 3028 3028 3029 3030 3032 3033 3035 3036 3037 3038 3039 3040 3040 3041 3042 3044 3045 3046 3048 3050 3051 3053 3054 3055 3057 3059 3060 3062 3065 3067 3070 3072 3073 3073 3075 3076 3078 3080 3082 3084 3086 3088 3089 3090 3092 3093 3095
3001 3002 3003 3003 3003 3003 3004 3004 3003 3003 3003 3004 3004 3005 3005 3005 3006 3006 3006 3007 3007 3008 3009 3010 3011 3012 3013 3015 3016 3017 3018 3018 3018 3019 3019 3020 3021 3023 3024 3025 3025 3026 3027 3029 3030 3032 3033 3034 3035 3036 3037 3038 3039 3040 3040 3042 3043 3045 3047 3048 3050 3050 3052 3053 3055 3056 3058 3060 3062 3064 3067 3068 3069 3070 3072 3074 3075 3077 3079 3081 3083 3085 3087 3088 3090 3091
2998 2999 3000 3000 3000 3000 3001 3001 3001 3001 3001 3001 3001 3002 3002 3003 3003 3004 3004 3004 3005 3005 3006 3007 3007 3009 3010 3012 3013 3014 3015 3015 3015 3016 3016 3017 3019 3020 3021 3022 3023 3023 3025 3026 3027 3029 3029 3030 3031 3032 3034 3035 3036 3036 3037 3039 3040 3041 3043 3045 3046 3047 3048 3049 3051 3053 3054 3055 3057 3059 3061 3063 3065 3066 3068 3070 3071 3073 3075 3077 3079 3081 3083 3084 3086 3087
2995 2995 2996 2997 2997 2997 2998 2999 2999 2999 2998 2998 2999 2999 2999 3000 3000 3001 3001 3002 3002 3002 3003 3003 3005 3006 3008 3009 3010 3010 3011 3012 3012 3013 3014 3015 3015 3017 3018 3019 3020 3020 3022 3023 3024 3025 3026 3027 3028 3029 3030 3032 3033 3034 3035 3035 3037 3038 3040 3040 3041 3043 3044 3045 3047 3049 3050 3051 3052 3054 3056 3058 3060 3062 3064 3065 3067 3069 3071 3073 3075 3076 3078 3080 3081 3083
2992 2993 2993 2994 2994 2995 2995 2996 2996 2996 2996 2996 2996 2996 2997 2997 2998 2998 2998 2999 2999 2999 3000 3000 3002 3003 3004 3005 3006 3007 3008 3008 3009 3010 3010 3011 3012 3014 3015 3016 3017 3017 3019 3020 3021 3022 3023 3024 3025 3026 3027 3028 3030 3031 3032 3033 3034 3035 3036 3037 3038 3039 3040 3041 3043 3045 3047 3048 3049 3050 3051 3053 3055 3057 3059 3061 3063 3065 3067 3069 3070 3072 3074 3075 3077 3079
2989 2990 2990 2991 2991 2991 2992 2992 2993 2993 2994 2993 2993 2994 2994 2994 2995 2995 2995 2996 2996 2996 2997 2998 2999 3000 3000 3001 3002 3004 3004 3005 3006 3006 3007 3007 3009 3011 3012 3013 3014 3014 3015 3017 3018 3019 3020 3021 3022 3023 3024 3025 3026 3027 3029 3030 3030 3031 3032 3034 3035 3035 3037 3038 3039 3041 3043 3045 3046 3047 3049 3050 3051 3054 3055 3057 3059 3060 3063 3065 3066 3068 3069 3071 3073 3075
2985 2986 2987 2988 2988 2988 2989 2989 2990 2990 2990 2991 2991 2991 2991 2991 2991 2992 2993 2994 2994 2993 2993 2994 2995 2995 2996 2998 3000 3001 3001 3002 3003 3003 3003 3004 3005 3007 3009 3010 3010 3011 3012 3014 3015 3016 3016 3017 3019 3020 3021 3022 3023 3024 3025 3026 3027 3028 3029 3030 3031 3032 3033 3035 3036 3037 3039 3041 3043 3044 3046 3047 3049 3050 3052 3054 3055 3057 3059 3061 3062 3064 3065 3067 3070 3071
2981 2982 2984 2984 2985 2985 2986 2986 2986 2987 2987 2988 2988 2988 2988 2988 2989 2989 2990 2990 2990 2990 2990 2991 2991 2992 2994 2996 2997 2997 2997 2999 2999 2999 2999 3000 3001 3003 3005 3006 3007 3008 3009 3010 3011 3012 3013 3014 3015 3016 3017 3018 3019 3020 3022 3023 3024 3025 3026 3027 3028 3029 3030 3031 3033 3034 3036 3037 3039 3041 3042 3044 3045 3047 3049 3050 3053 3055 3057 3058 3060 3060 3062 3064 3066 3067
2977 2978 2980 2981 2982 2982 2983 2983 2984 2984 2984 2984 2985 2985 2985 2985 2986 2986 2987 2987 2987 2988 2988 2988 2988 2989 2990 2992 2993 2993 2995 2996 2996 2996 2996 2997 2998 2999 3000 3002 3003 3005 3005 3006 3008 3009 3010 3011 3012 3013 3014 3015 3016 3017 3018 3020 3021 3022 3023 3024 3025 3026 3028 3029 3030 3031 3033 3034 3035 3037 3039 3040 3042 3044 3045 3047 3049 3052 3054 3055 3056 3057 3058 3060 3062 3063
2973 2974 2975 2977 2978 2979 2980 2980 2980 2981 2981 2981 2981 2982 2982 2982 2983 2983 2983 2984 2985 2985 2985 2985 2985 2986 2987 2988 2989 2990 2992 2993 2993 2992 2993 2994 2994 2995 2996 2998 3000 3000 3001 3003 3004 3005 3007 3008 3009 3010 3011 3012 3013 3014 3015 3016 3017 3019 3020 3021 3022 3023 3025 3026 3028 3029 3030 3031 3032 3034 3035 3037 3039 3040 3042 3044 3046 3048 3050 3051 3052 3054 3055 3056 3057 3058
2968 2970 2971 2972 2974 2975 2976 2976 2977 2978 2978 2978 2978 2978 2979 2979 2979 2980 2980 2981 2982 2982 2981 2981 2982 2983 2984 2984 2985 2987 2989 2989 2989 2989 2990 2991 2991 2991 2993 2995 2996 2996 2997 2999 3000 3002 3003 3004 3005 3007 3008 3009 3010 3011 3012 3013 3014 3015 3016 3017 3019 3020 3021 3023 3024 3026 3027 3029 3030 3031 3032 3034 3035 3037 3039 3041 3043 3044 3046 3047 3049 3050 3052 3052 3053 3054
2964 2965 2966 2968 2969 2970 2972 2973 2974 2974 2975 2975 2975 2975 2975 2975 2976 2976 2977 2978 2978 2978 2977 2978 2979 2980 2980 2981 2982 2983 2984 2985 2986 2987 2988 2988 2987 2987 2990 2991 2992 2992 2994 2995 2996 2997 2998 3000 3002 3004 3005 3006 3007 3008 3009 3010 3011 3012 3013 3014 3015 3016 3018 3019 3020 3022 3024 3025 3027 3028 3030 3031 3033 3035 3036 3038 3039 3041 3042 3044 3045 3047 3048 3048 3049 3050
2960 2961 2962 2963 2965 2966 2967 2969 2970 2970 2971 2972 2972 2972 2972 2972 2973 2973 2974 2975 2974 2974 2974 2975 2976 2977 2977 2978 2978 2979 2980 2982 2984 2984 2985 2984 2984 2984 2986 2988 2988 2989 2990 2991 2992 2993 2994 2996 2998 3000 3001 3002 3003 3005 3005 3007 3008 3009 3010 3011 3012 3013 3014 3015 3017 3018 3020 3021 3023 3025 3027 3028 3030 3032 3033 3035 3036 3037 3039 3040 3042 3043 3044 3044 3045 3046
2956 2957 2958 2959 2960 2961 2963 2964 2966 2967 2968 2968 2969 2969 2969 2969 2970 2970 2970 2971 2971 2971 2971 2972 2973 2973 2974 2974 2975 2976 2977 2979 2981 2981 2981 2981 2980 2981 2983 2984 2985 2985 2986 2988 2988 2989 2990 2991 2993 2995 2997 2999 3000 3001 3002 3004 3005 3006 3007 3008 3009 3010 3011 3012 3013 3015 3016 3017 3019 3021 3023 3025 3027 3029 3030 3031 3032 3033 3035 3036 3037 3039 3039 3040 3041 3042
2951 2952 2953 2955 2955 2957 2958 2960 2961 2963 2964 2965 2965 2965 2966 2966 2966 2966 2967 2967 2967 2968 2968 2969 2969 2969 2970 2971 2972 2973 2975 2976 2977 2977 2977 2977 2977 2978 2980 2981 2982 2982 2983 2984 2985 2985 2986 2988 2990 2991 2993 2995 2996 2998 2999 3000 3001 3003 3004 3005 3006 3007 3008 3009 3010 3011 3012 3013 3015 3016 3018 3020 3022 3024 3026 3027 3029 3030 3031 3032 3034 3035 3035 3036 3037 3039
2946 2948 2949 2950 2951 2952 2953 2955 2957 2958 2960 2960 2961 2962 2962 2962 2963 2963 2963 2964 2964 2964 2965 2965 2965 2966 2966 2967 2969 2970 2971 2972 2973 2973 2974 2974 2975 2975 2977 2978 2979 2979 2980 2981 2981 2982 2983 2984 2985 2987 2988 2990 2992 2994 2996 2997 2998 2999 3000 3001 3002 3003 3004 3005 3006 3007 3008 3010 3010 3012 3013 3015 3017 3019 3021 3023 3024 3026 3027 3029 3030 3032 3033 3033 3034 3035
2942 2943 2945 2946 2947 2948 2949 2950 2952 2953 2955 2956 2957 2958 2958 2959 2959 2960 2960 2960 2960 2961 2961 2962 2962 2963 2963 2964 2965 2966 2968 2969 2970 2970 2971 2971 2971 2972 2974 2975 2975 2976 2977 2978 2978 2979 2980 2980 2981 2983 2984 2986 2988 2990 2992 2994 2995 2996 2997 2998 2999 3000 3001 3002 3003 3004 3005 3006 3007 3008 3010 3011 3012 3014 3015 3017 3019 3021 3023 3025 3026 3028 3030 3030 3031 3032
2937 2939 2940 2942 2943 2944 2945 2946 2947 2949 2950 2952 2953 2954 2954 2955 2955 2955 2956 2957 2957 2958 2958 2959 2959 2960 2960 2961 2962 2963 2964 2965 2967 2967 2967 2968 2968 2969 2970 2971 2972 2973 2974 2975 2975 2975 2976 2977 2978 2979 2981 2982 2984 2985 2988 2990 2991 2993 2993 2994 2995 2996 2997 2999 3000 3001 3002 3003 3004 3005 3006 3008 3009 3010 3012 3013 3015 3017 3019 3020 3022 3024 3025 3027 3028 3030
2932 2934 2936 2938 2939 2940 2941 2942 2943 2945 2946 2947 2948 2949 2950 2950 2951 2952 2953 2953 2954 2955 2955 2955 2956 2956 2957 2957 2959 2960 2961 2962 2963 2964 2964 2964 2965 2966 2967 2967 2968 2970 2971 2971 2971 2972 2973 2973 2974 2975 2977 2978 2980 2981 2984 2985 2987 2989 2989 2990 2992 2993 2994 2995 2996 2997 2999 3000 3001 3002 3003 3004 3005 3007 3008 3010 3011 3013 3015 3016 3018 3020 3021 3023 3025 3026
2928 2929 2931 2933 2935 2936 2937 2938 2939 2940 2941 2942 2944 2945 2945 2946 2947 2948 2949 2950 2950 2951 2952 2952 2953 2953 2954 2954 2955 2956 2957 2959 2960 2960 2960 2961 2962 2963 2964 2964 2965 2966 2967 2968 2968 2969 2970 2970 2971 2972 2973 2975 2976 2978 2979 2981 2983 2984 2985 2987 2988 2990 2990 2991 2992 2994 2995 2996 2998 2999 3000 3001 3002 3004 3005 3006 3008 3010 3011 3012 3014 3016 3018 3020 3021 3023
2923 2925 2927 2929 2930 2931 2932 2933 2934 2935 2937 2938 2939 2940 2941 2942 2943 2944 2945 2946 2946 2947 2948 2949 2949 2950 2950 2951 2952 2953 2954 2955 2956 2956 2957 2958 2959 2960 2960 2961 2962 2963 2964 2965 2965 2966 2967 2967 2968 2969 2970 2971 2972 2974 2975 2977 2979 2980 2981 2983 2985 2985 2986 2987 2989 2990 2991 2993 2994 2995 2996 2997 2999 3000 3001 3003 3004 3006 3007 3009 3010 3012 3014 3015 3017 3019
2919 2920 2922 2924 2926 2927 2928 2929 2930 2931 2932 2933 2935 2936 2937 2938 2939 2940 2941 2942 2943 2944 2945 2945 2946 2947 2947 2948 2949 2950 2951 2952 2953 2954 2954 2955 2955 2956 2957 2958 2959 2960 2960 2961 2962 2963 2963 2964 2965 2966 2967 2968 2969 2970 2971 2973 2975 2976 2978 2980 2980 2981 2982 2984 2985 2986 2988 2989 2990 2992 2993 2994 2995 2997 2998 2999 3001 3002 3004 3006 3007 3009 3010 3012 3013 3015
2915 2916 2917 2919 2921 2923 2924 2925 2925 2927 2928 2929 2930 2931 2932 2934 2935 2935 2936 2938 2939 2940 2941 2942 2943 2943 2944 2945 2946 2947 2948 2949 2950 2950 2951 2952 2952 2953 2954 2955 2957 2957 2957 2958 2959 2960 2960 2961 2962 2963 2964 2965 2965 2966 2968 2969 2971 2972 2974 2975 2976 2977 2979 2981 2982 2983 2984 2985 2987 2988 2990 2991 2992 2993 2994 2996 2997 2999 3000 3002 3003 3005 3006 3008 3010 3011
2910 2911 2913 2915 2916 2918 2919 2920 2921 2923 2923 2924 2925 2927 2928 2929 2930 2931 2932 2933 2935 2935 2937 2938 2939 2940 2940 2942 2943 2944 2945 2946 2946 2947 2948 2949 2949 2950 2951 2952 2953 2954 2954 2955 2955 2956 2957 2958 2959 2960 2960 2961 2962 2963 2964 2966 2967 2969 2970 2971 2972 2974 2976 2977 2978 2979 2980 2981 2983 2984 2986 2987 2988 2990 2991 2992 2993 2995 2996 2998 3000 3001 3002 3004 3006 3007
2906 2907 2909 2910 2912 2913 2915 2916 2917 2918 2919 2920 2921 2922 2924 2925 2926 2927 2928 2929 2930 2932 2933 2934 2935 2936 2937 2939 2940 2941 2942 2943 2943 2944 2945 2945 2946 2947 2948 2949 2950 2951 2951 2952 2952 2953 2954 2955 2956 2957 2957 2958 2959 2960 2961 2963 2964 2965 2967 2968 2969 2970 2971 2972 2974 2976 2977 2978 2979 2980 2982 2983 2985 2986 2987 2988 2990 2991 2993 2994 2995 2997 2999 3000 3002 3003
2902 2903 2905 2906 2908 2909 2910 2911 2912 2913 2914 2915 2917 2918 2920 2921 2922 2923 2924 2925 2926 2928 2929 2930 2931 2932 2934 2935 2936 2938 2939 2939 2940 2941 2942 2942 2943 2944 2945 2945 2946 2947 2948 2949 2950 2950 2952 2953 2953 2954 2954 2955 2956 2957 2958 2960 2961 2962 2963 2964 2965 2967 2967 2969 2971 2972 2973 2974 2975 2976 2978 2979 2980 2982 2983 2985 2986 2987 2989 2990 2992 2993 2995 2996 2998 3000
2898 2899 2900 2902 2903 2904 2905 2906 2907 2909 2910 2911 2913 2914 2915 2917 2918 2919 2920 2921 2923 2924 2925 2926 2927 2929 2930 2931 2933 2935 2935 2936 2937 2938 2939 2939 2940 2941 2941 2942 2943 2944 2945 2946 2947 2948 2949 2950 2950 2951 2951 2953 2953 2954 2955 2956 2958 2959 2960 2961 2962 2963 2964 2965 2967 2968 2969 2970 2971 2972 2974 2975 2977 2978 2979 2980 2982 2984 2985 2987 2988 2990 2991 2993 2994 2996
2895 2895 2896 2897 2898 2900 2901 2902 2903 2905 2906 2907 2909 2910 2911 2913 2914 2915 2916 2917 2919 2920 2921 2922 2924 2925 2926 2927 2930 2931 2932 2933 2934 2935 2935 2936 2937 2938 2938 2939 2940 2940 2942 2943 2944 2945 2946 2947 2948 2948 2949 2950 2950 2951 2952 2954 2955 2956 2957 2958 2959 2960 2961 2962 2963 2964 2965 2966 2968 2969 2970 2971 2973 2974 2975 2976 2978 2980 2982 2983 2985 2986 2988 2989 2990 2992
2890 2891 2892 2893 2894 2895 2897 2898 2900 2901 2902 2903 2904 2906 2907 2909 2910 2911 2912 2913 2915 2916 2917 2919 2920 2921 2922 2924 2926 2927 2928 2929 2930 2931 2932 2933 2934 2935 2935 2936 2937 2938 2939 2940 2941 2942 2943 2944 2945 2946 2946 2947 2948 2949 2950 2951 2952 2953 2953 2955 2956 2957 2958 2959 2960 2961 2962 2963 2964 2965 2966 2968 2969 2970 2971 2973 2975 2976 2978 2979 2981 2982 2984 2985 2987 2989
2887 2887 2888 2889 2890 2891 2893 2894 2895 2896 2897 2899 2900 2902 2903 2905 2905 2906 2908 2909 2910 2912 2913 2915 2916 2917 2919 2921 2922 2924 2925 2926 2927 2928 2929 2930 2930 2931 2932 2933 2934 2935 2936 2937 2938 2939 2940 2941 2942 2943 2944 2944 2945 2946 2947 2948 2949 2950 2950 2951 2953 2954 2955 2955 2956 2958 2959 2960 2960 2962 2963 2964 2965 2966 2967 2969 2971 2972 2973 2975 2977 2979 2980 2982 2983 2985
2884 2884 2885 2885 2886 2887 2889 2890 2891 2892 2894 2895 2896 2898 2899 2900 2901 2902 2904 2905 2907 2908 2910 2911 2912 2914 2915 2917 2919 2920 2921 2922 2923 2925 2926 2926 2927 2928 2929 2930 2930 2932 2933 2934 2935 2936 2937 2938 2939 2940 2940 2942 2943 2944 2945 2945 2946 2947 2948 2949 2950 2950 2951 2952 2953 2954 2955 2956 2957 2958 2959 2960 2961 2962 2964 2965 2967 2968 2970 2971 2973 2975 2976 2978 2980 2981
2880 2880 2881 2882 2883 2884 2885 2886 2887 2889 2890 2891 2892 2894 2895 2896 2897 2899 2900 2901 2903 2904 2905 2907 2909 2910 2912 2913 2915 2916 2918 2919 2920 2921 2922 2923 2924 2925 2926 2926 2927 2929 2930 2931 2932 2933 2934 2935 2936 2937 2938 2939 2940 2941 2942 2942 2943 2944 2945 2945 2946 2947 2948 2949 2950 2951 2952 2952 2953 2954 2955 2956 2957 2959 2960 2961 2963 2964 2966 2968 2969 2971 2972 2974 2976 2978